Total_Precipitation_Accumulation
0.82 0.77 0.76 0.86 0.85 0.76 0.74 0.85 1.05 1.25 1.40 1.54 1.71 1.89 2.00 2.04 1.98 1.92 1.94 1.83 1.62 1.70 1.84 1.82 2.03 2.08 2.05 2.09 2.07 2.24 2.31 2.05 1.92 2.29 2.23 1.80 1.47 1.33 1.40 1.50 1.55 1.65 1.68
0.69 0.68 0.60 0.62 0.64 0.66 0.69 0.79 0.96 1.25 1.46 1.64 1.86 2.05 2.39 2.52 2.44 2.41 2.28 2.18 2.06 2.07 1.99 2.09 2.33 2.36 2.46 2.55 2.41 2.60 2.75 2.43 2.14 2.63 3.13 2.72 2.22 1.55 1.29 1.40 1.57 1.76 1.80
0.57 0.60 0.54 0.51 0.48 0.50 0.59 0.72 0.84 1.07 1.39 1.73 2.01 2.20 2.43 2.68 2.75 2.57 2.48 2.43 2.46 2.49 2.38 2.34 2.50 2.54 2.62 2.81 2.82 2.78 2.95 2.92 2.57 2.53 3.14 3.16 2.77 2.29 1.69 1.50 1.57 1.77 1.88
0.56 0.55 0.51 0.51 0.48 0.53 0.62 0.73 0.84 0.98 1.20 1.47 1.86 2.22 2.49 2.82 2.83 2.64 2.57 2.59 2.64 2.65 2.58 2.54 2.64 2.68 2.66 2.76 2.80 2.79 3.09 3.35 3.14 2.82 2.58 2.54 2.58 2.63 2.27 1.84 1.67 1.78 1.87
0.57 0.53 0.52 0.51 0.54 0.58 0.65 0.79 0.90 1.03 1.20 1.45 1.78 2.16 2.43 2.66 2.82 2.75 2.57 2.48 2.54 2.45 2.32 2.42 2.58 2.61 2.63 2.65 2.81 2.93 3.21 3.28 3.22 3.12 2.96 2.75 2.56 2.18 2.27 2.25 2.01 1.94 1.84
0.55 0.58 0.61 0.62 0.61 0.65 0.75 0.89 1.02 1.17 1.31 1.44 1.58 1.76 1.98 2.29 2.45 2.58 2.56 2.53 2.53 2.37 2.21 2.26 2.34 2.43 2.49 2.47 2.52 2.71 2.90 3.16 3.31 3.23 3.06 3.02 2.94 2.72 2.51 2.20 2.09 2.21 2.08
0.63 0.70 0.78 0.77 0.76 0.76 0.91 1.03 1.14 1.19 1.25 1.24 1.31 1.45 1.64 1.89 2.01 2.12 2.26 2.33 2.38 2.34 2.31 2.22 2.23 2.26 2.30 2.39 2.57 2.58 2.66 2.86 3.08 3.11 3.05 3.04 2.89 2.81 2.78 2.50 2.14 2.10 2.03
0.76 0.89 1.00 1.03 0.97 0.96 1.00 1.03 1.12 1.10 1.10 1.15 1.21 1.30 1.42 1.59 1.66 1.73 1.86 1.95 1.94 1.92 1.91 1.96 2.06 2.16 2.22 2.30 2.46 2.53 2.54 2.60 2.66 2.69 2.89 3.01 2.89 2.69 2.59 2.58 2.62 2.36 2.15
0.92 1.07 1.23 1.27 1.18 1.11 1.07 1.10 1.19 1.16 1.08 1.13 1.26 1.32 1.36 1.37 1.37 1.43 1.40 1.42 1.50 1.52 1.53 1.56 1.72 1.91 2.03 2.08 2.20 2.36 2.35 2.42 2.43 2.50 2.57 2.60 2.68 2.57 2.38 2.33 2.43 2.56 2.36
1.12 1.25 1.36 1.36 1.31 1.35 1.32 1.18 1.18 1.23 1.18 1.28 1.35 1.32 1.28 1.25 1.25 1.26 1.27 1.27 1.36 1.44 1.50 1.52 1.54 1.65 1.73 1.84 1.99 2.11 2.20 2.25 2.22 2.20 2.27 2.33 2.39 2.40 2.35 2.33 2.35 2.36 2.34
1.32 1.37 1.43 1.41 1.29 1.28 1.27 1.26 1.23 1.22 1.24 1.29 1.34 1.26 1.25 1.27 1.25 1.21 1.25 1.32 1.39 1.48 1.51 1.54 1.57 1.57 1.63 1.68 1.77 1.89 2.03 2.04 2.04 1.91 1.93 2.07 2.16 2.37 2.40 2.35 2.32 2.31 2.24
1.31 1.33 1.42 1.37 1.27 1.23 1.13 1.18 1.26 1.27 1.35 1.38 1.31 1.25 1.34 1.38 1.42 1.41 1.37 1.37 1.37 1.36 1.40 1.51 1.46 1.44 1.49 1.56 1.67 1.75 1.79 1.85 1.81 1.70 1.73 1.84 1.92 2.07 2.19 2.29 2.20 2.20 2.18
1.06 1.03 1.12 1.23 1.21 1.16 1.07 1.16 1.22 1.27 1.30 1.38 1.40 1.29 1.21 1.28 1.34 1.40 1.36 1.33 1.32 1.32 1.39 1.50 1.58 1.48 1.38 1.46 1.54 1.59 1.60 1.59 1.51 1.49 1.55 1.62 1.69 1.80 1.91 2.01 2.10 2.11 2.07
0.83 0.77 0.78 0.90 0.91 0.93 0.99 1.06 1.20 1.34 1.37 1.39 1.38 1.36 1.31 1.35 1.30 1.23 1.22 1.23 1.22 1.18 1.21 1.33 1.43 1.46 1.40 1.34 1.33 1.34 1.49 1.48 1.38 1.26 1.25 1.29 1.32 1.44 1.57 1.68 1.84 1.99 2.11
0.62 0.63 0.61 0.64 0.67 0.72 0.81 0.89 1.00 1.20 1.33 1.43 1.43 1.36 1.32 1.28 1.25 1.19 1.11 1.11 1.04 1.02 1.08 1.23 1.39 1.45 1.43 1.43 1.41 1.31 1.34 1.40 1.41 1.34 1.21 1.10 1.10 1.24 1.32 1.40 1.65 1.85 2.00
0.43 0.44 0.49 0.52 0.57 0.61 0.70 0.73 0.84 1.02 1.14 1.21 1.26 1.34 1.32 1.17 1.09 1.05 1.04 1.01 0.96 0.94 0.95 1.04 1.18 1.32 1.30 1.48 1.53 1.42 1.28 1.27 1.29 1.29 1.27 1.25 1.19 1.07 1.04 1.12 1.28 1.53 1.72
0.39 0.37 0.38 0.43 0.49 0.58 0.62 0.67 0.79 0.93 1.00 1.07 1.11 1.18 1.19 1.06 0.99 0.90 0.86 0.88 0.87 0.91 0.91 0.99 1.13 1.28 1.47 1.54 1.36 1.43 1.37 1.29 1.29 1.24 1.24 1.27 1.24 1.29 1.13 1.08 1.08 1.10 1.29
0.31 0.35 0.33 0.33 0.37 0.45 0.56 0.71 0.76 0.79 0.82 0.91 0.95 0.96 0.97 0.94 0.88 0.78 0.76 0.79 0.85 0.91 0.94 1.01 1.10 1.18 1.41 1.50 1.31 1.50 1.52 1.48 1.42 1.36 1.37 1.41 1.42 1.35 1.46 1.40 1.26 1.15 1.13
0.23 0.26 0.26 0.26 0.27 0.30 0.34 0.40 0.48 0.54 0.57 0.69 0.77 0.81 0.83 0.82 0.78 0.74 0.83 0.87 0.86 0.89 0.92 0.92 0.95 0.97 1.08 1.24 1.18 1.32 1.44 1.54 1.53 1.41 1.37 1.39 1.38 1.60 1.68 1.53 1.44 1.32 1.23
0.14 0.17 0.20 0.20 0.19 0.20 0.22 0.26 0.33 0.39 0.43 0.50 0.58 0.66 0.73 0.76 0.81 0.95 1.06 1.09 1.04 0.94 0.87 0.84 0.83 0.85 0.90 1.10 0.99 1.12 1.19 1.35 1.50 1.48 1.41 1.56 1.48 1.51 1.48 1.36 1.51 1.45 1.31
0.12 0.15 0.17 0.17 0.18 0.19 0.19 0.22 0.28 0.30 0.35 0.35 0.42 0.54 0.70 0.79 0.91 1.07 1.11 1.09 1.04 0.93 0.82 0.79 0.79 0.79 0.88 1.10 1.07 1.13 1.14 1.24 1.34 1.39 1.40 1.36 1.50 1.34 1.30 1.30 1.35 1.48 1.46
0.15 0.15 0.15 0.14 0.17 0.20 0.19 0.22 0.30 0.31 0.38 0.41 0.42 0.48 0.60 0.75 0.92 1.07 1.07 1.08 1.07 0.98 0.87 0.84 0.82 0.85 0.97 1.06 1.09 1.11 1.15 1.21 1.24 1.21 1.10 1.12 1.25 1.13 1.09 1.07 1.17 1.36 1.38
0.19 0.17 0.15 0.15 0.16 0.18 0.21 0.23 0.27 0.32 0.35 0.40 0.37 0.39 0.48 0.62 0.80 0.90 0.93 0.97 1.00 0.97 0.92 0.87 0.83 0.85 0.93 1.07 1.24 1.11 1.01 1.00 1.01 1.01 1.03 0.97 0.96 0.96 0.89 0.92 1.06 1.13 1.25
0.19 0.18 0.17 0.17 0.16 0.18 0.21 0.26 0.31 0.33 0.33 0.35 0.37 0.37 0.38 0.41 0.50 0.59 0.65 0.74 0.80 0.81 0.82 0.83 0.83 0.85 0.86 0.87 0.99 1.04 0.95 0.88 0.84 0.82 0.75 0.75 0.77 0.81 0.81 0.81 0.84 0.90 1.14
0.23 0.20 0.20 0.21 0.20 0.21 0.22 0.26 0.30 0.34 0.35 0.37 0.40 0.41 0.42 0.44 0.45 0.47 0.50 0.56 0.59 0.71 0.79 0.79 0.82 0.81 0.80 0.82 0.94 0.94 0.90 0.92 0.94 0.96 0.86 0.79 0.75 0.75 0.77 0.77 0.83 0.96 1.10
0.24 0.24 0.25 0.26 0.25 0.25 0.25 0.26 0.28 0.31 0.33 0.35 0.36 0.35 0.37 0.39 0.40 0.43 0.47 0.52 0.52 0.60 0.63 0.65 0.66 0.63 0.70 0.79 0.79 0.79 0.81 0.86 0.95 0.98 0.93 0.94 0.92 0.90 0.89 0.86 0.82 0.84 0.95